Location: Brown Observing Site
(43.4354°N, 116.3366°W)
Time: 03:24:56
(UTC-06:00)

Envisat - Pass Details

Date: 06 October 2020
Orbit: 764 x 766 km, 98.1° (Epoch: 23 October)

Event Time Altitude Azimuth Distance (km) Brightness Sun altitude
Rises 20:16:50 0° 212° (SSW) 3,218 6.6 -11.8°
Reaches altitude 10° 20:20:06 10° 235° (SW) 2,298 6.3 -12.4°
Maximum altitude 20:23:02 15° 270° (W) 1,952 6.4 -12.9°
Drops below altitude 10° 20:25:59 10° 306° (NW) 2,307 6.4 -13.5°
Sets 20:29:18 0° 329° (NNW) 3,239 6.8 -14.1°
